User: anonymous   Login
Location: Unspecified
(17.6330°N, 0.0000°E)
Time: 15:52:33
(UTC+00:00)
Language:

NOAA 19 - Orbit

View from above orbital plane
View from above orbital plane
View from above satellite
View from above satellite

Ground track
Ground track

The orbit data is extracted from the following two-line orbital elements,

1 33591U 09005A   19233.94306525 +.00000007 +00000-0 +29412-4 0  9996
2 33591 099.1835 226.6317 0013630 194.3546 165.7240 14.12372247542717
Epoch (UTC): 21 August 2019 22:38:00
Eccentricity: 0.0013630
inclination: 99.1835°
perigee height: 841 km
apogee height: 861 km
right ascension of ascending node: 226.6317°
argument of perigee: 194.3546°
revolutions per day: 14.12372247
mean anomaly at epoch: 165.7240°
orbit number at epoch: 54271

The dashed part of the orbit path shows where the satellite is in the earth's shadow,  

DLR